Torna al catalogo

ORBCOMM FM 9

AttivoComunicazioniLEO
NORAD 25116·PAYLOAD·🇺🇸 United States

Lanciato Dec 23, 1997 da Cape Canaveral Space Force Station

Loading…

Prossimi Passaggi (prossime 24 ore)

TLE

AggiornatoSource: Space-Track

Epoca: Sep 14, 2026, 14:36 UTC

1 25116U 97084E   26257.60888219  .00000753  00000-0  24621-3 0  9990
2 25116  45.0162 349.2849 0004556 326.9090  33.1477 14.46700596507259

Traccia ORBCOMM FM 9 in tempo reale con AllMySat

Download on the App Store